Appleton, MN

4:53 PM CDT on March 24, 2017 (GMT -0500)
Appleton Municipal

Weather History for KAQP - August, 2013

Change the Weather History Date:

Saturday, August 3, 2013

  Actual Average Record
Temperature  
Mean Temperature 64 °F -  
Max Temperature 78 °F 78 °F 91 °F (2012)
Min Temperature 50 °F 57 °F 50 °F (2013)
Degree Days  
Heating Degree Days 1    
Growing Degree Days 14 (Base 50)    
Moisture  
Dew Point 49 °F    
Average Humidity 62    
Maximum Humidity 94    
Minimum Humidity 28    
Precipitation  
Precipitation 0.00 in - - ()
Sea Level Pressure  
Sea Level Pressure 30.17 in    
Wind  
Wind Speed 3 mph (NNW)    
Max Wind Speed 13 mph    
Max Gust Speed 20 mph    
Visibility 10 miles    
Events      
Averages and records for this station are not official NWS values.
T = Trace of Precipitation, MM = Missing Value Source: NWS Daily Summary

Daily Weather History Graph

Daily Weather History Graph

Search for Another Location

Airport or City:

Trip Planner

Search our weather history database for the weather conditions in past years. The results will help you decide how hot, cold, wet, or windy it might be!

Date:

Astronomy

Aug. 03, 2013 Rise Set
Actual Time 6:11 AM CDT 8:48 PM CDT
Civil Twilight 5:37 AM CDT 9:21 PM CDT
Nautical Twilight 4:55 AM CDT 10:03 PM CDT
Astronomical Twilight 4:06 AM CDT 10:52 PM CDT
Moon 3:19 AM CDT (8/3) 6:32 PM CDT (8/3)
Length of Visible Light 15h 44m
Length of Day
14h 36m
Waning Crescent, 9% of the Moon is Illuminated
Aug 3
Waning Crescent
Aug 6
New
Aug 14
First Quarter
Aug 20
Full
Aug 28
Last Quarter

Hourly Weather History & Observations

Time (CDT) Temp. Dew Point Humidity Pressure Visibility Wind Dir Wind Speed Gust Speed Precip Events Conditions
12:13 AM 55.4 °F 51.8 °F 88% 30.09 in 10.0 mi Calm Calm - N/A   Clear
12:33 AM 55.4 °F 51.8 °F 88% 30.09 in 10.0 mi Calm Calm - N/A   Clear
12:53 AM 55.4 °F 51.8 °F 88% 30.09 in 10.0 mi Calm Calm - N/A   Clear
1:14 AM 53.6 °F 51.8 °F 94% 30.09 in 10.0 mi Calm Calm - N/A   Clear
1:33 AM 53.6 °F 51.8 °F 94% 30.09 in 10.0 mi Calm Calm - N/A   Clear
1:53 AM 53.6 °F 48.2 °F 82% 30.10 in 10.0 mi Calm Calm - N/A   Clear
2:13 AM 53.6 °F 48.2 °F 82% 30.10 in 10.0 mi NNW 3.5 mph - N/A   Clear
2:33 AM 53.6 °F 48.2 °F 82% 30.11 in 10.0 mi Calm Calm - N/A   Clear
2:53 AM 51.8 °F 48.2 °F 88% 30.10 in 10.0 mi NNE 3.5 mph - N/A   Clear
3:13 AM 51.8 °F 48.2 °F 88% 30.10 in - Calm Calm - N/A   Unknown
3:33 AM 51.8 °F 48.2 °F 88% 30.10 in - Calm Calm - N/A   Unknown
3:53 AM 53.6 °F 48.2 °F 82% 30.10 in - Calm Calm - N/A   Unknown
4:13 AM 53.6 °F 50.0 °F 88% 30.12 in - West 4.6 mph - N/A   Unknown
4:33 AM 53.6 °F 50.0 °F 88% 30.11 in - Calm Calm - N/A   Unknown
4:54 AM 53.6 °F 50.0 °F 88% 30.11 in 10.0 mi Calm Calm - N/A   Clear
5:14 AM 51.8 °F 48.2 °F 88% 30.12 in - West 3.5 mph - N/A   Unknown
5:33 AM 50.0 °F 48.2 °F 94% 30.13 in 10.0 mi West 4.6 mph - N/A   Clear
5:53 AM 50.0 °F 46.4 °F 87% 30.13 in 10.0 mi West 3.5 mph - N/A   Clear
6:13 AM 50.0 °F 46.4 °F 87% 30.14 in 10.0 mi West 3.5 mph - N/A   Clear
6:33 AM 50.0 °F 46.4 °F 87% 30.15 in 10.0 mi Calm Calm - N/A   Clear
6:53 AM 51.8 °F 48.2 °F 88% 30.14 in 10.0 mi Calm Calm - N/A   Clear
7:13 AM 53.6 °F 51.8 °F 94% 30.16 in 10.0 mi West 3.5 mph - N/A   Clear
7:34 AM 55.4 °F 51.8 °F 88% 30.16 in 10.0 mi West 3.5 mph - N/A   Clear
7:53 AM 57.2 °F 53.6 °F 88% 30.18 in 10.0 mi WSW 3.5 mph - N/A   Scattered Clouds
8:14 AM 60.8 °F 53.6 °F 77% 30.18 in 10.0 mi West 3.5 mph - N/A   Scattered Clouds
8:33 AM 60.8 °F 53.6 °F 77% 30.17 in 10.0 mi NNW 4.6 mph - N/A   Clear
8:53 AM 62.6 °F 55.4 °F 77% 30.17 in 10.0 mi North 3.5 mph - N/A   Clear
9:13 AM 66.2 °F 55.4 °F 68% 30.18 in 10.0 mi WNW 3.5 mph - N/A   Clear
9:33 AM 68.0 °F 55.4 °F 64% 30.18 in 10.0 mi NW 3.5 mph - N/A   Clear
9:53 AM 69.8 °F 55.4 °F 60% 30.18 in 10.0 mi NW 3.5 mph - N/A   Clear
10:13 AM 71.6 °F 55.4 °F 57% 30.19 in 10.0 mi North 4.6 mph - N/A   Clear
10:33 AM 71.6 °F 53.6 °F 53% 30.19 in 10.0 mi North 6.9 mph - N/A   Clear
10:53 AM 73.4 °F 51.8 °F 47% 30.18 in 10.0 mi North 8.1 mph - N/A   Clear
11:13 AM 73.4 °F 50.0 °F 44% 30.18 in 10.0 mi NNE 10.4 mph - N/A   Clear
11:34 AM 75.2 °F 48.2 °F 38% 30.18 in 10.0 mi NNE 8.1 mph - N/A   Clear
11:53 AM 75.2 °F 48.2 °F 38% 30.19 in 10.0 mi North 11.5 mph - N/A   Clear
12:13 PM 75.2 °F 48.2 °F 38% 30.19 in 10.0 mi NNW 10.4 mph 19.6 mph N/A   Clear
12:33 PM 75.2 °F 46.4 °F 36% 30.20 in 10.0 mi North 10.4 mph - N/A   Scattered Clouds
12:54 PM 77.0 °F 48.2 °F 36% 30.20 in 10.0 mi North 9.2 mph - N/A   Scattered Clouds
1:14 PM 77.0 °F 46.4 °F 34% 30.20 in 10.0 mi North 6.9 mph 16.1 mph N/A   Clear
1:34 PM 78.8 °F 48.2 °F 34% 30.20 in 10.0 mi NNW 11.5 mph 16.1 mph N/A   Scattered Clouds
1:53 PM 78.8 °F 46.4 °F 32% 30.19 in 10.0 mi North 10.4 mph - N/A   Scattered Clouds
2:13 PM 78.8 °F 44.6 °F 30% 30.19 in 10.0 mi North 10.4 mph - N/A   Clear
2:33 PM 78.8 °F 46.4 °F 32% 30.20 in 10.0 mi NNW 5.8 mph 9.2 mph N/A   Scattered Clouds
2:54 PM 78.8 °F 46.4 °F 32% 30.19 in 10.0 mi North 9.2 mph - N/A   Scattered Clouds
3:13 PM 78.8 °F 46.4 °F 32% 30.19 in 10.0 mi North 11.5 mph 19.6 mph N/A   Scattered Clouds
3:34 PM 78.8 °F 44.6 °F 30% 30.19 in 10.0 mi North 9.2 mph - N/A   Scattered Clouds
3:53 PM 78.8 °F 46.4 °F 32% 30.19 in 10.0 mi NNW 9.2 mph - N/A   Clear
4:14 PM 78.8 °F 44.6 °F 30% 30.19 in 10.0 mi North 12.7 mph 17.3 mph N/A   Scattered Clouds
4:33 PM 78.8 °F 44.6 °F 30% 30.18 in 10.0 mi North 11.5 mph 16.1 mph N/A   Clear
4:54 PM 77.0 °F 46.4 °F 34% 30.19 in 10.0 mi North 10.4 mph - N/A   Scattered Clouds
5:07 PM 78.8 °F 44.6 °F 30% 30.19 in 10.0 mi North 11.5 mph - N/A   Scattered Clouds
5:31 PM 77.0 °F 44.6 °F 32% 30.18 in 10.0 mi North 11.5 mph - N/A   Clear
5:53 PM 78.8 °F 44.6 °F 30% 30.18 in 10.0 mi North 9.2 mph - N/A   Clear
6:13 PM 78.8 °F 42.8 °F 28% 30.18 in 10.0 mi North 10.4 mph 16.1 mph N/A   Clear
6:33 PM 77.0 °F 42.8 °F 29% 30.18 in 10.0 mi North 9.2 mph - N/A   Clear
6:54 PM 75.2 °F 42.8 °F 31% 30.18 in 10.0 mi North 9.2 mph - N/A   Clear
7:13 PM 75.2 °F 42.8 °F 31% 30.18 in 10.0 mi North 8.1 mph - N/A   Clear
7:33 PM 73.4 °F 44.6 °F 36% 30.18 in 10.0 mi North 5.8 mph - N/A   Clear
7:53 PM 73.4 °F 48.2 °F 41% 30.18 in 10.0 mi North 4.6 mph - N/A   Clear
8:13 PM 71.6 °F 50.0 °F 46% 30.18 in 10.0 mi North 4.6 mph - N/A   Clear
8:34 PM 68.0 °F 51.8 °F 56% 30.19 in 10.0 mi NNE 3.5 mph - N/A   Clear
8:53 PM 66.2 °F 53.6 °F 64% 30.19 in 10.0 mi Calm Calm - N/A   Clear
9:13 PM 64.4 °F 53.6 °F 68% 30.19 in 10.0 mi North 3.5 mph - N/A   Clear
9:33 PM 62.6 °F 51.8 °F 68% 30.20 in 10.0 mi Calm Calm - N/A   Clear
9:53 PM 60.8 °F 51.8 °F 72% 30.20 in 10.0 mi NNE 3.5 mph - N/A   Clear
10:12 PM 59.0 °F 51.8 °F 77% 30.21 in 10.0 mi Calm Calm - N/A   Clear
10:33 PM 60.8 °F 51.8 °F 72% 30.21 in 10.0 mi NNE 4.6 mph - N/A   Clear
10:54 PM 57.2 °F 51.8 °F 82% 30.21 in 10.0 mi Calm Calm - N/A   Clear
11:14 PM 57.2 °F 50.0 °F 77% 30.22 in 10.0 mi Calm Calm - N/A   Clear
11:33 PM 57.2 °F 50.0 °F 77% 30.22 in 10.0 mi Calm Calm - N/A   Clear
11:54 PM 57.2 °F 51.8 °F 82% 30.22 in 10.0 mi ENE 3.5 mph - N/A   Clear